Date String (YYYY-MM-DD hh:mm:ss) UTC,Instrument flags,Ambient pressure (hPa),Sample flow (lpm),Bypass flow (lpm),Sample temperature (°C),Ambient temperature (°C),ASC tube jacket temperature (°C),LED temperature (°C),Box temperature (°C),Sample RH (%),Span deviation,Mass concentration (μg/m³),Mass concentration (μg/m³),Mass concentration (μg/m³)
DateTimeUTC,F1_M11,P_M11,Q1_M11,Q2_M11,T1_M11,T2_M11,T3_M11,T4_M11,T5_M11,U1_M11,ZSPAN_M11,X0_M11,X2_M11,X1_M11
2023-01-24 14:00:00,,0824.9,5.00,0.00,21.6,19.5,00.0,30.5,23.1,13.8,-002.4,0023.47,0020.11,0019.85
2023-01-24 14:01:00,,0824.9,5.00,0.00,21.6,19.9,00.0,30.5,23.1,13.9,-002.5,0023.53,0020.17,0019.90
2023-01-24 14:02:00,,0825.0,5.00,0.00,21.6,21.1,00.0,30.5,23.4,13.8,-002.4,0022.94,0020.19,0019.91
2023-01-24 14:03:00,,0824.9,4.98,0.00,21.8,22.2,00.0,30.5,23.7,13.7,-002.3,0022.93,0020.26,0019.99
2023-01-24 14:04:00,,0824.9,5.01,0.00,21.9,22.2,00.0,30.5,23.8,13.7,-002.4,0023.04,0020.32,0020.03
2023-01-24 14:05:00,,0824.9,4.99,0.00,21.9,21.5,00.0,30.6,23.7,13.7,-002.4,0023.17,0020.39,0020.07
2023-01-24 14:06:00,,0824.9,5.02,0.00,21.8,20.9,00.0,30.6,23.5,13.7,-002.3,0023.14,0020.40,0020.09
2023-01-24 14:07:00,,0824.9,5.00,0.00,21.8,20.4,00.0,30.6,23.4,13.7,-002.2,0023.04,0020.37,0020.09
2023-01-24 14:08:00,,0824.9,5.00,0.00,21.7,19.9,00.0,30.6,23.3,13.8,-002.2,0023.10,0020.44,0020.15
2023-01-24 14:09:00,,0824.9,4.99,0.00,21.7,19.7,00.0,30.5,23.2,13.8,-002.3,0023.26,0020.52,0020.22
2023-01-24 14:10:00,,0825.0,5.00,0.00,21.6,19.4,00.0,30.5,23.1,13.8,-002.3,0023.42,0020.59,0020.27
2023-01-24 14:11:00,,0824.9,5.01,0.00,21.5,19.3,00.0,30.5,23.0,13.9,-002.4,0023.55,0020.62,0020.29
2023-01-24 14:12:00,,0824.9,5.01,0.00,21.5,19.1,00.0,30.4,22.9,13.9,-002.3,0023.50,0020.61,0020.29
2023-01-24 14:13:00,,0824.9,5.01,0.00,21.5,20.0,00.0,30.4,23.1,13.9,-002.4,0023.45,0020.61,0020.30
2023-01-24 14:14:00,,0824.9,4.99,0.00,21.6,21.4,00.0,30.4,23.4,13.8,-002.5,0023.67,0020.59,0020.27
2023-01-24 14:15:00,,0825.0,5.00,0.00,21.7,22.5,00.0,30.4,23.7,13.7,-002.4,0023.88,0020.58,0020.23
2023-01-24 14:16:00,,0825.0,4.99,0.00,21.8,22.3,00.0,30.5,23.8,13.6,-002.4,0023.87,0020.56,0020.22
2023-01-24 14:17:00,,0825.0,4.99,0.00,21.8,21.7,00.0,30.5,23.7,13.6,-002.4,0023.86,0020.55,0020.20
2023-01-24 14:18:00,,0825.0,5.01,0.00,21.8,21.1,00.0,30.5,23.6,13.6,-002.5,0023.91,0020.57,0020.23
2023-01-24 14:19:00,,0825.0,5.00,0.00,21.8,20.6,00.0,30.5,23.4,13.6,-002.5,0023.89,0020.56,0020.22
2023-01-24 14:20:00,,0825.0,4.99,0.00,21.8,20.2,00.0,30.5,23.4,13.6,-002.4,0023.87,0020.56,0020.22
2023-01-24 14:21:00,,0824.9,5.01,0.00,21.7,19.9,00.0,30.5,23.2,13.6,-002.3,0023.84,0020.57,0020.22
2023-01-24 14:22:00,,0824.9,5.00,0.00,21.7,19.6,00.0,30.5,23.1,13.7,-002.3,0023.77,0020.58,0020.25
2023-01-24 14:23:00,,0824.9,4.99,0.00,21.6,19.4,00.0,30.5,23.1,13.7,-002.4,0023.86,0020.64,0020.30
2023-01-24 14:24:00,,0824.9,5.00,0.00,21.5,19.3,00.0,30.5,23.0,13.6,-002.5,0024.01,0020.68,0020.33
2023-01-24 14:25:00,,0824.9,5.00,0.00,21.5,19.2,00.0,30.4,22.9,13.7,-002.4,0023.82,0020.70,0020.35
2023-01-24 14:26:00,,0824.9,5.00,0.00,21.5,19.6,00.0,30.4,23.0,13.7,-002.4,0023.59,0020.70,0020.39
2023-01-24 14:27:00,,0824.9,5.01,0.00,21.5,20.9,00.0,30.4,23.3,13.6,-002.5,0023.59,0020.69,0020.40
2023-01-24 14:28:00,,0824.9,4.99,0.00,21.7,22.0,00.0,30.4,23.5,13.5,-002.5,0023.59,0020.68,0020.39
2023-01-24 14:29:00,,0824.9,5.01,0.00,21.8,22.1,00.0,30.4,23.7,13.4,-002.5,0023.62,0020.66,0020.34
2023-01-24 14:30:00,,0824.9,5.03,0.00,21.8,21.4,00.0,30.5,23.6,13.3,-002.5,0023.57,0020.62,0020.30
2023-01-24 14:31:00,,0824.9,5.00,0.00,21.8,20.8,00.0,30.5,23.5,13.3,-002.5,0023.52,0020.59,0020.28
2023-01-24 14:32:00,,0824.9,4.99,0.00,21.7,20.4,00.0,30.5,23.3,13.3,-002.6,0023.50,0020.56,0020.27
2023-01-24 14:33:00,,0824.9,4.99,0.00,21.7,20.0,00.0,30.5,23.2,13.3,-002.6,0023.56,0020.54,0020.23
2023-01-24 14:34:00,,0824.9,5.02,0.00,21.6,19.7,00.0,30.4,23.1,13.3,-002.6,0023.53,0020.50,0020.18
2023-01-24 14:35:00,,0824.9,5.01,0.00,21.5,19.4,00.0,30.4,22.9,13.4,-002.6,0023.55,0020.51,0020.17
2023-01-24 14:36:00,,0825.0,4.99,0.00,21.5,19.2,00.0,30.4,22.9,13.4,-002.6,0023.57,0020.51,0020.18
2023-01-24 14:37:00,,0824.9,5.01,0.00,21.4,19.3,00.0,30.4,22.9,13.5,-002.6,0023.59,0020.51,0020.18
2023-01-24 14:38:00,,0824.9,5.01,0.00,21.5,20.7,00.0,30.3,23.1,13.5,-002.5,0023.62,0020.54,0020.19
2023-01-24 14:39:00,,0824.9,5.01,0.00,21.6,22.0,00.0,30.3,23.5,13.5,-002.7,0023.62,0020.53,0020.18
2023-01-24 14:40:00,,0825.0,4.99,0.00,21.7,22.5,00.0,30.4,23.7,13.4,-002.6,0023.55,0020.48,0020.16
2023-01-24 14:41:00,,0824.9,4.99,0.00,21.8,22.0,00.0,30.4,23.7,13.3,-002.6,0023.54,0020.47,0020.14
2023-01-24 14:42:00,,0824.9,5.00,0.00,21.8,21.6,00.0,30.5,23.7,13.3,-002.6,0023.53,0020.45,0020.12
2023-01-24 14:43:00,,0824.9,5.01,0.00,21.8,21.2,00.0,30.5,23.6,13.4,-002.5,0023.54,0020.44,0020.10
2023-01-24 14:44:00,,0824.9,4.99,0.00,21.8,20.8,00.0,30.5,23.5,13.4,-002.5,0023.49,0020.42,0020.08
2023-01-24 14:45:00,,0825.0,5.01,0.00,21.8,20.6,00.0,30.5,23.5,13.4,-002.5,0023.41,0020.37,0020.04
2023-01-24 14:46:00,,0825.0,5.00,0.00,21.8,20.4,00.0,30.5,23.4,13.5,-002.5,0023.27,0020.31,0020.01
2023-01-24 14:47:00,,0825.1,4.99,0.00,21.8,20.3,00.0,30.5,23.4,13.5,-002.3,0023.27,0020.30,0020.01
2023-01-24 14:48:00,,0825.1,4.99,0.00,21.7,20.2,00.0,30.5,23.4,13.5,-002.2,0023.32,0020.31,0020.01
2023-01-24 14:49:00,,0825.2,5.00,0.00,21.7,20.1,00.0,30.5,23.3,13.6,-002.2,0023.35,0020.30,0020.00
2023-01-24 14:50:00,,0825.1,5.00,0.00,21.7,20.0,00.0,30.5,23.3,13.6,-002.0,0023.31,0020.26,0019.96
2023-01-24 14:51:00,,0825.1,4.99,0.00,21.7,19.9,00.0,30.5,23.2,13.6,-002.0,0023.25,0020.24,0019.95
2023-01-24 14:52:00,,0825.1,5.03,0.00,21.6,19.9,00.0,30.5,23.2,13.6,-001.9,0023.15,0020.18,0019.90
2023-01-24 14:53:00,,0825.1,5.03,0.00,21.7,20.6,00.0,30.5,23.3,13.5,-001.9,0023.02,0020.07,0019.79
2023-01-24 14:54:00,,0825.1,4.99,0.00,21.8,21.8,00.0,30.5,23.6,13.4,-002.0,0022.83,0019.85,0019.57
2023-01-24 14:55:00,,0825.1,5.01,0.00,21.9,22.7,00.0,30.5,23.9,13.3,-002.0,0022.82,0019.57,0019.30
2023-01-24 14:56:00,,0825.1,4.99,0.00,22.0,22.5,00.0,30.6,24.0,13.2,-002.0,0022.84,0019.36,0019.07
2023-01-24 14:57:00,,0825.1,5.01,0.00,22.0,22.0,00.0,30.6,23.9,13.1,-002.0,0023.04,0018.98,0018.68
2023-01-24 14:58:00,,0825.1,4.99,0.00,22.0,21.5,00.0,30.6,23.8,13.0,-002.0,0022.75,0018.56,0018.25
2023-01-24 14:59:00,,0825.1,4.99,0.00,22.0,21.1,00.0,30.6,23.8,12.9,-001.9,0022.16,0018.08,0017.78
